Terug naar catalogus

STARLINK-4714

ActiefCommunicatieVLEO
NORAD 53704·PAYLOAD·🇺🇸 United States

Gelanceerd Sep 5, 2022 vanaf Cape Canaveral Space Force Station

Loading…

Volgende Passages (komende 24 uur)

TLE

VersSource: CelesTrak SupGP

Epoch: Sep 14, 2026, 22:04 UTC

1 53704C 22107E   26257.91993056 -.00004810  00000+0 -15471-3 0  2577
2 53704  53.1581 101.7636 0001372  85.6751 354.9459 15.31698308    17

Volg STARLINK-4714 in realtime met AllMySat

Download on the App Store